TimeEDT,TemperatureF,Dew PointF,Humidity,Sea Level PressureIn,VisibilityMPH,Wind Direction,Wind SpeedMPH,Gust SpeedMPH,PrecipitationIn,Events,Conditions,WindDirDegrees,DateUTC
12:15 AM,46.2,18.9,34,29.90,10.0,Calm,Calm,-,N/A,,Clear,0,2012-11-02 04:15:00
12:35 AM,46.9,19.0,33,29.91,10.0,Calm,Calm,-,N/A,,Clear,0,2012-11-02 04:35:00
12:55 AM,46.8,19.8,34,29.91,10.0,Calm,Calm,-,N/A,,Clear,0,2012-11-02 04:55:00
1:15 AM,45.5,21.4,38,29.91,10.0,West,9.2,-,N/A,,Clear,270,2012-11-02 05:15:00
1:35 AM,48.4,19.9,32,29.91,10.0,West,10.4,-,N/A,,Clear,270,2012-11-02 05:35:00
1:55 AM,48.9,20.1,32,29.90,10.0,West,8.1,-,N/A,,Clear,280,2012-11-02 05:55:00
2:15 AM,48.0,21.0,34,29.90,10.0,WNW,8.1,-,N/A,,Clear,290,2012-11-02 06:15:00
2:35 AM,47.8,21.2,35,29.90,10.0,West,9.2,-,N/A,,Clear,280,2012-11-02 06:35:00
2:55 AM,49.1,21.2,33,29.90,10.0,West,9.2,16.1,N/A,,Mostly Cloudy,270,2012-11-02 06:55:00
3:15 AM,50.2,21.6,33,29.91,10.0,West,10.4,-,N/A,,Overcast,270,2012-11-02 07:15:00
3:35 AM,50.0,22.5,34,29.91,10.0,West,9.2,-,N/A,,Overcast,260,2012-11-02 07:35:00
3:55 AM,49.1,22.8,36,29.91,10.0,West,6.9,-,N/A,,Mostly Cloudy,270,2012-11-02 07:55:00
4:15 AM,47.5,23.0,38,29.91,10.0,West,5.8,-,N/A,,Scattered Clouds,260,2012-11-02 08:15:00
4:35 AM,46.0,23.5,41,29.91,10.0,West,5.8,-,N/A,,Mostly Cloudy,260,2012-11-02 08:35:00
4:55 AM,45.0,23.9,44,29.91,10.0,West,5.8,-,N/A,,Mostly Cloudy,260,2012-11-02 08:55:00
5:15 AM,44.6,24.1,44,29.91,10.0,West,5.8,-,N/A,,Mostly Cloudy,260,2012-11-02 09:15:00
5:35 AM,45.5,24.6,44,29.90,10.0,WSW,5.8,-,N/A,,Overcast,250,2012-11-02 09:35:00
5:55 AM,45.1,24.8,45,29.90,10.0,SW,4.6,-,N/A,,Scattered Clouds,230,2012-11-02 09:55:00
6:15 AM,44.1,25.2,47,29.90,10.0,SW,4.6,-,N/A,,Mostly Cloudy,220,2012-11-02 10:15:00
6:35 AM,44.8,25.3,47,29.90,10.0,SW,4.6,-,N/A,,Overcast,230,2012-11-02 10:35:00
6:55 AM,45.1,25.9,47,29.90,10.0,WSW,5.8,-,N/A,,Overcast,240,2012-11-02 10:55:00
7:15 AM,46.0,26.2,46,29.90,10.0,SW,3.5,-,N/A,,Overcast,230,2012-11-02 11:15:00
7:35 AM,45.1,25.9,47,29.90,10.0,SW,4.6,-,N/A,,Overcast,230,2012-11-02 11:35:00
7:55 AM,44.6,26.4,49,29.90,10.0,WSW,3.5,-,N/A,,Overcast,240,2012-11-02 11:55:00
8:15 AM,44.4,27.9,52,29.90,10.0,South,4.6,-,N/A,,Overcast,190,2012-11-02 12:15:00
8:35 AM,44.2,27.9,53,29.91,10.0,SSW,3.5,-,N/A,,Overcast,210,2012-11-02 12:35:00
8:55 AM,47.5,27.7,46,29.91,10.0,SW,3.5,-,N/A,,Overcast,230,2012-11-02 12:55:00
9:15 AM,49.1,29.3,46,29.91,10.0,SSW,4.6,-,N/A,,Scattered Clouds,200,2012-11-02 13:15:00
9:35 AM,51.3,30.7,45,29.91,10.0,SSW,3.5,-,N/A,,Clear,200,2012-11-02 13:35:00
9:55 AM,52.3,32.0,46,29.91,10.0,South,4.6,-,N/A,,Scattered Clouds,170,2012-11-02 13:55:00
10:15 AM,54.1,32.4,44,29.90,10.0,West,3.5,-,N/A,,Clear,270,2012-11-02 14:15:00
10:35 AM,55.9,32.5,41,29.89,10.0,WSW,6.9,-,N/A,,Clear,250,2012-11-02 14:35:00
10:55 AM,57.9,34.0,41,29.89,10.0,WSW,6.9,-,N/A,,Clear,250,2012-11-02 14:55:00
11:15 AM,57.9,34.5,41,29.89,10.0,WSW,6.9,-,N/A,,Clear,240,2012-11-02 15:15:00
11:35 AM,59.9,35.2,40,29.88,10.0,SW,6.9,-,N/A,,Clear,220,2012-11-02 15:35:00
11:55 AM,61.3,35.8,39,29.87,10.0,WSW,8.1,17.3,N/A,,Clear,240,2012-11-02 15:55:00
12:15 PM,62.8,35.8,37,29.86,10.0,SW,10.4,-,N/A,,Scattered Clouds,230,2012-11-02 16:15:00
12:35 PM,63.9,36.3,36,29.86,10.0,WSW,6.9,-,N/A,,Mostly Cloudy,240,2012-11-02 16:35:00
12:55 PM,63.9,36.9,37,29.85,10.0,SW,8.1,-,N/A,,Overcast,230,2012-11-02 16:55:00
1:15 PM,64.2,37.6,37,29.85,10.0,West,5.8,-,N/A,,Overcast,260,2012-11-02 17:15:00
1:35 PM,66.4,39.0,37,29.84,10.0,West,13.8,18.4,N/A,,Mostly Cloudy,270,2012-11-02 17:35:00
1:55 PM,66.4,39.4,37,29.84,10.0,NW,12.7,21.9,N/A,,Mostly Cloudy,310,2012-11-02 17:55:00
2:15 PM,68.2,39.2,35,29.84,10.0,NW,20.7,26.5,N/A,,Mostly Cloudy,320,2012-11-02 18:15:00
2:35 PM,68.2,38.8,34,29.84,10.0,NW,20.7,31.1,N/A,,Scattered Clouds,310,2012-11-02 18:35:00
2:55 PM,68.4,38.8,34,29.85,10.0,WNW,20.7,42.6,N/A,,Scattered Clouds,300,2012-11-02 18:55:00
3:15 PM,67.5,38.5,35,29.85,10.0,WNW,15.0,33.4,N/A,,Clear,300,2012-11-02 19:15:00
3:35 PM,66.7,37.6,34,29.85,10.0,WNW,18.4,34.5,N/A,,Clear,290,2012-11-02 19:35:00
3:55 PM,66.9,36.9,33,29.86,10.0,WNW,12.7,27.6,N/A,,Clear,300,2012-11-02 19:55:00
4:15 PM,65.8,37.0,35,29.86,10.0,West,10.4,19.6,N/A,,Clear,280,2012-11-02 20:15:00
4:35 PM,67.6,36.3,32,29.87,10.0,WNW,11.5,16.1,N/A,,Clear,300,2012-11-02 20:35:00
4:55 PM,66.6,34.2,30,29.87,10.0,WNW,11.5,18.4,N/A,,Clear,300,2012-11-02 20:55:00
5:15 PM,66.7,32.0,27,29.87,10.0,NW,10.4,-,N/A,,Clear,310,2012-11-02 21:15:00
5:35 PM,65.7,31.6,28,29.88,10.0,NW,11.5,17.3,N/A,,Clear,310,2012-11-02 21:35:00
5:55 PM,64.9,32.2,29,29.89,10.0,Calm,Calm,-,N/A,,Clear,0,2012-11-02 21:55:00
6:15 PM,62.6,32.5,32,29.90,10.0,WNW,6.9,-,N/A,,Clear,300,2012-11-02 22:15:00
6:35 PM,59.5,32.4,36,29.91,10.0,WNW,9.2,-,N/A,,Clear,300,2012-11-02 22:35:00
6:55 PM,60.8,30.7,32,29.92,10.0,NW,8.1,-,N/A,,Clear,310,2012-11-02 22:55:00
7:15 PM,58.6,31.1,35,29.93,10.0,WNW,8.1,-,N/A,,Clear,300,2012-11-02 23:15:00
7:35 PM,59.0,30.0,33,29.93,10.0,WNW,6.9,-,N/A,,Clear,290,2012-11-02 23:35:00
7:55 PM,56.8,30.4,37,29.94,10.0,Calm,Calm,-,N/A,,Clear,0,2012-11-02 23:55:00
8:15 PM,57.4,31.1,37,29.94,10.0,Calm,Calm,-,N/A,,Clear,0,2012-11-03 00:15:00
8:35 PM,56.5,31.6,39,29.95,10.0,Calm,Calm,-,N/A,,Clear,0,2012-11-03 00:35:00
8:55 PM,55.0,31.6,41,29.96,10.0,Calm,Calm,-,N/A,,Clear,0,2012-11-03 00:55:00
9:15 PM,53.4,32.4,45,29.96,10.0,Calm,Calm,-,N/A,,Clear,0,2012-11-03 01:15:00
9:35 PM,55.6,32.4,41,29.97,10.0,Calm,Calm,-,N/A,,Clear,0,2012-11-03 01:35:00
9:55 PM,50.4,33.1,52,29.97,10.0,Calm,Calm,-,N/A,,Clear,0,2012-11-03 01:55:00
10:15 PM,49.6,33.3,53,29.98,10.0,WNW,5.8,-,N/A,,Clear,290,2012-11-03 02:15:00
10:35 PM,50.2,32.7,51,29.98,10.0,West,4.6,-,N/A,,Clear,270,2012-11-03 02:35:00
10:55 PM,48.9,32.2,52,29.98,10.0,WNW,8.1,-,N/A,,Clear,300,2012-11-03 02:55:00
11:15 PM,48.2,32.0,54,29.98,10.0,NNE,4.6,-,N/A,,Clear,20,2012-11-03 03:15:00
11:35 PM,49.5,32.0,51,29.99,10.0,Calm,Calm,-,N/A,,Clear,0,2012-11-03 03:35:00
11:55 PM,46.2,32.4,58,29.99,10.0,Calm,Calm,-,N/A,,Clear,0,2012-11-03 03:55:00